User: anonymous   Login
Location: Benque
(43.2594°N, 0.9178°E)
Time: 18:19:23
(UTC+00:00)
Language:

USA 238 DEB - Orbit

View from above orbital plane
View from above orbital plane
View from above satellite
View from above satellite

Ground track
Ground track

The orbit data is extracted from the following two-line orbital elements,

1 38773U 12048P   20096.10377958 0.00000000  00000-0  00000-0 0    03
2 38773  63.4324 217.9355 0118261   1.5038 358.4962 13.40803606    08
Epoch (UTC): 05 April 2020 02:29:26
Eccentricity: 0.0118261
inclination: 63.4324°
perigee height: 1018 km
apogee height: 1195 km
right ascension of ascending node: 217.9355°
argument of perigee: 1.5038°
revolutions per day: 13.40803606
mean anomaly at epoch: 358.4962°
orbit number at epoch: 0

The dashed part of the orbit path shows where the satellite is in the earth's shadow,  

DLR